period_start,C,m1,H,J0,J1,J2,J3,J4,J5,JA,JB,JC,JD,JJ,JK,JN,#
2017-05-21 00:00:05,0.03,2.12,0.00,22.94,26.82,30.43,14.53,47.79,1019.25,2031.91,2675.00,2556.08,2912.01,599.87,597.67,47.43,0000 0000 0000 0000 000000
2017-05-21 00:05:07,0.00,2.12,0.00,22.91,26.80,30.42,14.59,47.78,1019.15,2031.94,2674.84,2556.00,2912.00,600.19,597.59,47.48,0000 0000 0000 0000 000000
2017-05-21 00:10:08,0.02,2.12,0.00,22.92,26.80,30.35,14.59,47.86,1019.10,2031.95,2674.11,2555.99,2911.91,600.30,598.03,47.53,0000 0000 0000 0000 000000
2017-05-21 00:15:09,0.01,2.12,0.00,22.89,26.77,30.34,14.57,47.89,1019.09,2031.97,2673.98,2555.96,2911.20,599.78,597.52,47.59,0000 0000 0000 0000 000000
2017-05-21 00:20:10,0.03,2.12,0.00,22.91,26.77,30.37,14.58,47.90,1019.10,2031.98,2673.69,2555.61,2911.02,600.14,597.86,47.64,0000 0000 0000 0000 000000
2017-05-21 00:25:11,0.02,2.12,0.00,22.98,26.76,30.34,14.48,47.70,1019.10,2031.99,2673.04,2555.10,2910.98,599.47,597.10,47.69,0000 0000 0000 0000 000000
2017-05-21 00:30:13,0.07,2.12,0.00,23.33,26.77,30.36,14.52,47.72,1019.08,2031.97,2672.27,2554.42,2910.11,600.08,596.94,47.74,0000 0000 0000 0000 000000
2017-05-21 00:35:14,0.03,2.13,0.00,23.26,26.78,30.24,14.41,47.62,1019.09,2031.98,2671.56,2554.00,2909.26,599.68,596.65,47.79,0000 0000 0000 0000 000000
2017-05-21 00:40:15,0.03,2.13,0.00,23.58,26.80,30.25,14.50,47.64,1019.13,2031.96,2670.86,2553.57,2908.91,599.80,596.14,47.84,0000 0000 0000 0000 000000
2017-05-21 00:45:16,0.04,2.13,0.00,23.75,26.82,30.30,14.52,47.63,1019.19,2031.93,2670.06,2553.02,2908.13,600.21,596.32,47.89,0000 0000 0000 0000 000000
2017-05-21 00:50:17,-0.02,2.13,0.00,23.92,26.85,30.35,14.46,47.54,1019.39,2031.81,2669.95,2552.98,2908.00,599.97,595.81,47.94,0000 0000 0000 0000 000000
2017-05-21 00:55:18,0.03,2.13,0.00,23.92,26.86,30.41,14.49,47.66,1019.48,2031.66,2669.28,2552.53,2907.68,600.00,595.86,47.99,0000 0000 0000 0000 000000
2017-05-21 01:00:19,0.03,2.13,0.00,23.97,26.87,30.44,14.48,47.67,1019.48,2031.56,2669.00,2552.03,2907.06,600.00,595.70,48.04,0000 0000 0000 0000 000000
2017-05-21 01:05:21,-0.01,2.13,0.00,24.00,26.90,30.46,14.42,47.64,1019.52,2031.45,2668.50,2551.99,2906.85,600.09,595.72,48.09,0000 0000 0000 0000 000000
2017-05-21 01:10:22,0.05,2.13,0.00,24.04,26.90,30.44,14.53,47.60,1019.52,2031.16,2667.49,2551.35,2906.05,600.19,595.95,48.14,0000 0000 0000 0000 000000
2017-05-21 01:15:23,0.02,2.14,0.00,23.89,26.90,30.45,14.45,47.66,1019.46,2031.10,2666.87,2550.96,2905.45,599.86,595.77,48.19,0000 0000 0000 0000 000000
2017-05-21 01:20:25,0.04,2.14,0.00,23.48,26.90,30.46,14.46,47.61,1019.46,2031.08,2666.13,2550.47,2905.01,599.77,596.47,48.24,0000 0000 0000 0000 000000
2017-05-21 01:25:26,0.01,2.14,0.00,23.29,26.90,30.53,14.48,47.58,1019.41,2031.03,2665.88,2550.02,2904.97,599.51,596.62,48.29,0000 0000 0000 0000 000000
2017-05-21 01:30:27,0.04,2.14,0.00,23.20,26.88,30.47,14.57,47.94,1019.40,2031.06,2665.12,2549.99,2904.37,600.01,597.31,48.34,0000 0000 0000 0000 000000
2017-05-21 01:35:28,0.00,2.14,0.00,23.15,26.87,30.39,14.56,47.85,1019.38,2031.07,2664.99,2549.96,2904.02,600.04,597.43,48.39,0000 0000 0000 0000 000000
2017-05-21 01:40:29,0.05,2.14,0.00,23.13,26.85,30.40,14.58,47.83,1019.51,2031.19,2664.65,2549.56,2903.99,600.20,597.72,48.44,0000 0000 0000 0000 000000
2017-05-21 01:45:31,0.01,2.14,0.00,23.13,26.83,30.36,14.54,47.81,1019.53,2031.16,2664.03,2549.05,2903.85,599.47,596.83,48.49,0000 0000 0000 0000 000000
2017-05-21 01:50:32,0.04,2.15,0.00,23.45,26.82,30.39,14.51,47.77,1019.53,2031.37,2663.98,2549.00,2903.16,599.82,596.62,48.54,0000 0000 0000 0000 000000
2017-05-21 01:55:33,0.01,2.15,0.00,23.44,26.83,30.20,14.57,47.66,1019.55,2031.38,2663.33,2548.93,2902.99,600.04,596.97,48.60,0000 0000 0000 0000 000000
2017-05-21 02:00:35,0.04,2.15,0.00,23.65,26.85,30.19,14.44,47.63,1019.55,2031.35,2662.99,2548.26,2902.62,599.91,596.39,48.65,0000 0000 0000 0000 000000
2017-05-21 02:05:36,0.01,2.15,0.00,23.85,26.86,30.27,14.60,47.70,1019.55,2031.28,2662.58,2548.01,2902.05,600.36,596.50,48.70,0000 0000 0000 0000 000000
2017-05-21 02:10:37,0.01,2.15,0.00,23.96,26.88,30.35,14.50,47.58,1019.55,2031.21,2662.01,2547.99,2901.99,600.07,595.86,48.75,0000 0000 0000 0000 000000
2017-05-21 02:15:39,0.04,2.15,0.00,23.93,26.90,30.36,14.46,47.61,1019.56,2031.12,2661.76,2547.40,2901.35,599.94,595.83,48.80,0000 0000 0000 0000 000000
2017-05-21 02:20:40,0.01,2.15,0.00,23.65,26.90,30.38,14.50,47.67,1019.55,2031.10,2661.05,2547.01,2901.00,600.08,596.39,48.85,0000 0000 0000 0000 000000
2017-05-21 02:25:41,0.01,2.15,0.00,23.46,26.91,30.47,14.52,47.53,1019.56,2031.07,2660.69,2546.98,2900.78,600.37,597.20,48.90,0000 0000 0000 0000 000000
2017-05-21 02:30:42,0.04,2.16,0.00,23.67,26.91,30.56,14.49,47.72,1019.57,2031.04,2660.04,2546.53,2900.11,599.90,596.35,48.95,0000 0000 0000 0000 000000
2017-05-21 02:35:44,0.01,2.16,0.00,23.75,26.92,30.28,14.49,47.49,1019.58,2031.04,2659.88,2546.03,2899.99,600.05,596.35,49.00,0000 0000 0000 0000 000000
2017-05-21 02:40:45,0.03,2.16,0.00,23.87,26.93,30.31,14.53,47.53,1019.55,2031.01,2659.13,2545.98,2899.48,600.43,596.38,49.05,0000 0000 0000 0000 000000
2017-05-21 02:45:46,0.02,2.16,0.00,23.99,26.95,30.37,14.58,47.57,1019.55,2031.02,2658.99,2545.60,2899.02,600.26,596.14,49.10,0000 0000 0000 0000 000000
2017-05-21 02:50:47,0.04,2.16,0.00,24.09,26.96,30.41,14.51,47.58,1019.57,2031.00,2658.37,2545.04,2898.80,600.33,596.03,49.15,0000 0000 0000 0000 000000
2017-05-21 02:55:48,0.01,2.16,0.00,24.14,26.97,30.45,14.51,47.58,1019.57,2031.00,2658.00,2544.99,2898.11,600.40,595.91,49.20,0000 0000 0000 0000 000000
2017-05-21 03:00:50,0.04,2.16,0.00,24.18,26.98,30.46,14.53,47.55,1019.57,2031.00,2657.41,2544.54,2897.98,600.25,595.60,49.25,0000 0000 0000 0000 000000
2017-05-21 03:05:51,0.02,2.17,0.00,24.26,27.00,30.47,14.43,47.57,1019.56,2031.00,2657.00,2544.03,2897.49,600.08,595.34,49.30,0000 0000 0000 0000 000000
2017-05-21 03:10:53,0.01,2.17,0.00,24.24,27.00,30.47,14.49,47.63,1019.58,2031.00,2656.66,2544.00,2897.02,600.27,595.55,49.35,0000 0000 0000 0000 000000
2017-05-21 03:15:54,0.02,2.17,0.00,24.27,27.00,30.46,14.41,47.43,1019.62,2031.00,2656.02,2543.77,2896.93,599.64,594.91,49.40,0000 0000 0000 0000 000000
2017-05-21 03:20:56,0.04,2.17,0.00,24.29,27.00,30.46,14.46,47.47,1019.66,2031.00,2655.71,2543.13,2896.22,600.00,595.28,49.46,0000 0000 0000 0000 000000
2017-05-21 03:25:57,0.01,2.17,0.00,24.28,27.00,30.48,14.50,47.58,1019.60,2031.00,2655.04,2543.00,2896.00,599.91,595.06,49.51,0000 0000 0000 0000 000000
2017-05-21 03:30:57,0.04,2.17,0.00,24.27,27.00,30.46,14.41,47.57,1019.57,2031.00,2654.50,2542.67,2895.62,599.75,594.91,49.56,0000 0000 0000 0000 000000
2017-05-21 03:35:59,0.02,2.18,0.00,24.32,27.00,30.44,14.42,47.41,1019.59,2031.00,2654.00,2542.06,2895.04,600.11,595.23,49.61,0000 0000 0000 0000 000000
2017-05-21 03:41:00,0.02,2.18,0.00,24.33,27.00,30.44,14.42,47.48,1019.74,2031.00,2653.37,2541.99,2894.92,599.87,595.03,49.66,0000 0000 0000 0000 000000
2017-05-21 03:46:02,0.05,2.18,0.00,24.33,27.00,30.44,14.50,47.58,1019.68,2031.00,2652.74,2541.46,2894.14,600.08,595.31,49.71,0000 0000 0000 0000 000000
2017-05-21 03:51:03,0.02,2.18,0.00,24.37,27.00,30.42,14.46,47.55,1019.66,2031.00,2652.00,2541.01,2893.83,600.01,595.17,49.76,0000 0000 0000 0000 000000
2017-05-21 03:56:04,0.04,2.18,0.00,24.39,27.00,30.41,14.39,47.52,1019.59,2031.00,2651.19,2540.76,2893.08,600.21,595.20,49.81,0000 0000 0000 0000 000000
2017-05-21 04:01:05,0.02,2.18,0.00,24.40,27.00,30.40,14.49,47.64,1019.57,2031.00,2650.96,2540.11,2892.99,600.09,595.08,49.86,0000 0000 0000 0000 000000
2017-05-21 04:06:06,0.03,2.19,0.00,24.38,27.00,30.37,14.44,47.58,1019.57,2031.00,2650.31,2540.00,2892.59,600.10,595.08,49.91,0000 0000 0000 0000 000000
2017-05-21 04:11:08,0.00,2.19,0.00,24.40,27.00,30.41,14.45,47.59,1019.56,2031.00,2650.00,2539.98,2892.03,600.12,595.06,49.96,0000 0000 0000 0000 000000
2017-05-21 04:16:09,0.04,2.19,0.00,24.43,27.00,30.39,14.50,47.43,1019.57,2031.00,2649.56,2539.36,2891.99,600.04,595.10,50.01,0000 0000 0000 0000 000000
2017-05-21 04:21:11,0.02,2.19,0.00,24.46,27.00,30.39,14.38,47.38,1019.59,2031.00,2649.03,2539.03,2891.65,599.91,594.78,50.06,0000 0000 0000 0000 000000
2017-05-21 04:26:12,0.01,2.19,0.00,24.44,27.00,30.39,14.33,47.42,1019.57,2031.00,2648.86,2538.99,2891.06,599.97,594.78,50.11,0000 0000 0000 0000 000000
2017-05-21 04:31:13,0.02,2.19,0.00,24.41,27.00,30.37,14.43,47.58,1019.57,2031.00,2648.11,2538.80,2891.00,600.45,595.39,50.16,0000 0000 0000 0000 000000
2017-05-21 04:36:15,0.03,2.19,0.00,24.44,27.00,30.37,14.35,47.57,1019.58,2031.00,2647.97,2538.13,2890.61,599.59,594.47,50.21,0000 0000 0000 0000 000000
2017-05-21 04:41:16,0.02,2.20,0.00,24.46,27.00,30.37,14.37,47.54,1019.59,2031.00,2647.41,2538.00,2890.03,599.72,594.65,50.26,0000 0000 0000 0000 000000
2017-05-21 04:46:17,0.03,2.20,0.00,24.47,27.00,30.36,14.47,47.52,1019.61,2031.00,2646.83,2537.68,2889.70,600.21,595.03,50.32,0000 0000 0000 0000 000000
2017-05-21 04:51:19,0.03,2.20,0.00,24.43,27.01,30.36,14.40,47.58,1019.56,2031.00,2646.09,2537.06,2889.05,600.05,594.99,50.37,0000 0000 0000 0000 000000
2017-05-21 04:56:20,0.00,2.20,0.00,24.42,27.02,30.38,14.39,47.63,1019.57,2031.00,2645.96,2537.00,2888.99,599.79,594.58,50.42,0000 0000 0000 0000 000000
2017-05-21 05:01:21,0.03,2.20,0.00,24.48,27.02,30.37,14.40,47.54,1019.61,2031.00,2645.35,2536.95,2888.66,599.95,594.65,50.47,0000 0000 0000 0000 000000
2017-05-21 05:06:22,0.03,2.20,0.00,24.46,27.02,30.37,14.43,47.58,1019.76,2031.00,2645.00,2536.38,2888.05,600.14,595.08,50.52,0000 0000 0000 0000 000000
2017-05-21 05:11:24,0.01,2.20,0.00,24.45,27.02,30.37,14.41,47.48,1019.79,2031.00,2644.71,2536.03,2888.00,599.89,594.82,50.57,0000 0000 0000 0000 000000
2017-05-21 05:16:25,0.02,2.20,0.00,24.46,27.02,30.38,14.43,47.60,1019.78,2030.99,2644.05,2535.99,2887.46,599.89,594.91,50.62,0000 0000 0000 0000 000000
2017-05-21 05:21:26,0.03,2.21,0.00,24.45,27.02,30.38,14.34,47.52,1019.94,2030.99,2643.88,2535.60,2887.02,599.84,594.87,50.67,0000 0000 0000 0000 000000
2017-05-21 05:26:27,0.03,2.21,0.00,24.42,27.02,30.36,14.43,47.51,1020.01,2030.99,2643.15,2535.06,2886.98,600.01,595.19,50.72,0000 0000 0000 0000 000000
2017-05-21 05:31:29,0.01,2.21,0.00,24.47,27.03,30.36,14.50,47.54,1020.01,2030.98,2642.98,2535.00,2886.34,600.33,595.40,50.77,0000 0000 0000 0000 000000
2017-05-21 05:36:30,0.02,2.21,0.00,24.46,27.04,30.35,14.45,47.53,1020.00,2030.99,2642.44,2534.89,2886.01,600.09,595.15,50.82,0000 0000 0000 0000 000000
2017-05-21 05:41:31,0.02,2.21,0.00,24.46,27.05,30.36,14.44,47.48,1019.98,2030.98,2642.01,2534.22,2885.96,600.00,595.11,50.87,0000 0000 0000 0000 000000
2017-05-21 05:46:33,0.03,2.21,0.00,24.48,27.05,30.37,14.45,47.45,1020.01,2030.97,2641.62,2534.00,2885.26,600.19,595.20,50.92,0000 0000 0000 0000 000000
2017-05-21 05:51:34,0.01,2.21,0.00,24.47,27.05,30.37,14.41,47.58,1020.03,2030.95,2641.01,2533.94,2885.00,600.06,595.21,50.97,0000 0000 0000 0000 000000
2017-05-21 05:56:35,0.06,2.22,0.00,24.47,27.05,30.37,14.42,47.70,1020.03,2030.96,2640.47,2533.23,2884.65,599.79,594.95,51.02,0000 0000 0000 0000 000000
2017-05-21 06:01:36,0.01,2.22,0.00,24.43,27.05,30.36,14.45,47.59,1020.03,2030.97,2640.00,2533.01,2884.04,600.10,595.26,51.07,0000 0000 0000 0000 000000
2017-05-21 06:06:38,0.01,2.22,0.00,24.44,27.05,30.37,14.49,47.69,1020.02,2030.96,2639.76,2533.00,2883.99,600.21,595.36,51.12,0000 0000 0000 0000 000000
2017-05-21 06:11:39,0.05,2.22,0.00,24.44,27.07,30.35,14.50,47.57,1020.03,2030.94,2639.10,2532.51,2883.52,599.91,595.06,51.17,0000 0000 0000 0000 000000
2017-05-21 06:16:40,0.01,2.22,0.00,24.45,27.07,30.33,14.35,47.58,1020.03,2030.88,2638.93,2532.02,2883.02,599.95,595.13,51.22,0000 0000 0000 0000 000000
2017-05-21 06:21:41,0.02,2.22,0.00,24.47,27.07,30.33,14.40,47.66,1020.03,2030.84,2638.14,2531.99,2882.93,599.76,595.01,51.27,0000 0000 0000 0000 000000
2017-05-21 06:26:43,0.02,2.22,0.00,24.48,27.07,30.33,14.42,47.58,1020.03,2030.82,2637.94,2531.66,2882.17,599.91,594.96,51.33,0000 0000 0000 0000 000000
2017-05-21 06:31:44,0.02,2.23,0.00,24.43,27.07,30.32,14.41,47.52,1020.03,2030.71,2637.16,2531.04,2882.00,600.17,595.33,51.38,0000 0000 0000 0000 000000
2017-05-21 06:36:45,0.01,2.23,0.00,24.40,27.07,30.32,14.48,47.62,1020.04,2030.58,2636.88,2530.98,2881.56,600.13,595.29,51.43,0000 0000 0000 0000 000000
2017-05-21 06:41:46,0.02,2.23,0.00,24.43,27.07,30.32,14.42,47.50,1020.04,2030.40,2636.09,2530.52,2881.01,600.09,595.24,51.48,0000 0000 0000 0000 000000
2017-05-21 06:46:47,0.04,2.23,0.00,24.43,27.07,30.33,14.37,47.57,1020.04,2030.40,2635.69,2530.02,2880.74,599.86,594.87,51.53,0000 0000 0000 0000 000000
2017-05-21 06:51:48,0.01,2.23,0.00,24.41,27.08,30.32,14.42,47.55,1020.04,2030.23,2635.03,2529.95,2880.04,599.98,595.19,51.58,0000 0000 0000 0000 000000
2017-05-21 06:56:49,0.04,2.23,0.00,24.40,27.08,30.32,14.52,47.59,1020.04,2030.28,2634.65,2529.35,2879.97,600.64,595.86,51.63,0000 0000 0000 0000 000000
2017-05-21 07:01:51,0.05,2.23,0.00,24.38,27.08,30.31,14.50,47.57,1020.04,2030.41,2634.01,2529.01,2879.36,600.20,595.47,51.68,0000 0000 0000 0000 000000
2017-05-21 07:06:52,0.02,2.24,0.00,24.41,27.09,30.33,14.47,47.61,1020.04,2030.37,2633.43,2528.79,2879.01,600.36,595.42,51.73,0000 0000 0000 0000 000000
2017-05-21 07:11:53,0.05,2.24,0.00,24.41,27.09,30.35,14.43,47.72,1020.04,2030.48,2632.96,2528.12,2878.72,600.09,595.32,51.78,0000 0000 0000 0000 000000
2017-05-21 07:16:54,0.03,2.24,0.00,24.45,27.09,30.35,14.37,47.63,1020.04,2030.42,2632.15,2528.00,2878.03,599.89,594.99,51.83,0000 0000 0000 0000 000000
2017-05-21 07:21:55,0.03,2.24,0.00,24.35,27.10,30.35,14.42,47.72,1020.05,2030.42,2631.69,2527.61,2877.76,599.82,595.14,51.88,0000 0000 0000 0000 000000
2017-05-21 07:26:56,0.04,2.24,0.00,24.41,27.10,30.34,14.40,47.69,1020.06,2030.50,2631.03,2527.03,2877.07,599.60,594.86,51.93,0000 0000 0000 0000 000000
2017-05-21 07:31:58,0.01,2.24,0.00,24.42,27.10,30.33,14.47,47.63,1020.05,2030.41,2630.53,2526.91,2876.89,599.86,595.08,51.98,0000 0000 0000 0000 000000
2017-05-21 07:36:59,0.04,2.25,0.00,24.44,27.10,30.33,14.42,47.68,1020.04,2030.29,2630.01,2526.21,2876.16,599.83,594.99,52.03,0000 0000 0000 0000 000000
2017-05-21 07:42:00,0.01,2.25,0.00,24.39,27.10,30.32,14.39,47.58,1020.06,2030.23,2629.42,2526.00,2875.99,600.16,595.63,52.08,0000 0000 0000 0000 000000
2017-05-21 07:47:02,0.03,2.25,0.00,24.35,27.10,30.31,14.49,47.63,1020.11,2030.12,2628.96,2525.74,2875.39,600.23,595.59,52.13,0000 0000 0000 0000 000000
2017-05-21 07:52:03,0.04,2.25,0.00,24.32,27.10,30.30,14.42,47.61,1020.11,2030.08,2628.15,2525.06,2875.00,600.07,595.51,52.18,0000 0000 0000 0000 000000
2017-05-21 07:57:04,0.02,2.25,0.00,24.43,27.10,30.31,14.48,47.50,1020.09,2030.08,2627.78,2524.99,2874.40,600.24,595.45,52.23,0000 0000 0000 0000 000000
2017-05-21 08:02:05,0.04,2.25,0.00,24.40,27.10,30.30,14.44,47.53,1020.18,2030.11,2626.98,2524.39,2873.94,600.14,595.41,52.28,0000 0000 0000 0000 000000
2017-05-21 08:07:07,0.04,2.26,0.00,24.40,27.10,30.31,14.41,47.63,1020.46,2030.09,2626.08,2523.97,2873.12,599.87,595.29,52.34,0000 0000 0000 0000 000000
2017-05-21 08:12:08,0.06,2.26,0.00,24.43,27.10,30.32,14.41,47.50,1020.51,2030.08,2625.41,2523.28,2872.83,600.10,595.55,52.39,0000 0000 0000 0000 000000
2017-05-21 08:17:09,0.02,2.26,0.00,24.29,27.10,30.31,14.43,47.67,1020.52,2030.06,2624.65,2522.95,2872.05,599.26,595.06,52.44,0000 0000 0000 0000 000000
2017-05-21 08:22:10,0.05,2.26,0.00,24.37,27.10,30.30,14.45,47.56,1020.52,2030.05,2623.97,2522.30,2871.63,599.93,595.46,52.49,0000 0000 0000 0000 000000
2017-05-21 08:27:12,0.02,2.27,0.00,24.40,27.10,30.30,14.50,47.52,1020.52,2030.06,2623.17,2522.00,2871.02,600.67,595.95,52.54,0000 0000 0000 0000 000000
2017-05-21 08:32:13,0.04,2.27,0.00,24.30,27.10,30.30,14.46,47.65,1020.52,2030.12,2622.91,2521.56,2870.57,600.29,595.92,52.59,0000 0000 0000 0000 000000
2017-05-21 08:37:14,0.03,2.27,0.00,24.33,27.10,30.29,14.37,47.52,1020.52,2030.14,2622.10,2521.03,2870.02,599.83,595.49,52.64,0000 0000 0000 0000 000000
2017-05-21 08:42:15,0.04,2.27,0.00,24.40,27.10,30.29,14.42,47.67,1020.53,2030.12,2621.64,2520.89,2869.61,599.95,595.55,52.69,0000 0000 0000 0000 000000
2017-05-21 08:47:16,0.03,2.27,0.00,24.39,27.09,30.28,14.45,47.59,1020.54,2030.13,2620.90,2520.14,2868.98,599.97,595.54,52.74,0000 0000 0000 0000 000000
2017-05-21 08:52:17,0.07,2.28,0.00,24.45,27.09,30.28,14.44,47.56,1020.53,2030.08,2619.93,2519.51,2868.10,600.05,595.50,52.79,0000 0000 0000 0000 000000
2017-05-21 08:57:18,0.09,2.28,0.00,24.41,27.08,30.27,14.36,47.67,1020.53,2030.14,2618.81,2518.59,2867.26,599.52,595.02,52.84,0000 0000 0000 0000 000000
2017-05-21 09:02:19,0.04,2.28,0.00,24.33,27.07,30.27,14.49,47.57,1020.52,2030.13,2617.98,2517.99,2866.23,600.15,595.76,52.89,0000 0000 0000 0000 000000
2017-05-21 09:07:21,0.04,2.29,0.00,24.38,27.07,30.27,14.48,47.49,1020.53,2030.10,2617.18,2517.38,2865.90,600.20,595.78,52.94,0000 0000 0000 0000 000000
2017-05-21 09:12:22,0.03,2.29,0.00,24.42,27.07,30.27,14.36,47.49,1020.55,2030.06,2616.69,2517.00,2865.15,600.19,595.51,52.99,0000 0000 0000 0000 000000
2017-05-21 09:17:23,0.02,2.29,0.00,24.33,27.07,30.26,14.46,47.45,1020.58,2030.09,2616.03,2516.85,2864.98,600.28,595.97,53.04,0000 0000 0000 0000 000000
2017-05-21 09:22:24,0.07,2.29,0.00,24.38,27.07,30.28,14.44,47.53,1020.59,2030.14,2615.58,2516.11,2864.35,599.95,595.67,53.09,0000 0000 0000 0000 000000
2017-05-21 09:27:26,0.01,2.29,0.00,24.37,27.07,30.27,14.46,47.50,1020.73,2030.19,2614.87,2515.97,2863.98,599.99,595.69,53.14,0000 0000 0000 0000 000000
2017-05-21 09:32:27,0.05,2.30,0.00,24.34,27.07,30.26,14.45,47.62,1020.74,2030.15,2614.07,2515.33,2863.28,600.01,595.88,53.19,0000 0000 0000 0000 000000
2017-05-21 09:37:29,0.02,2.30,0.00,24.35,27.06,30.26,14.41,47.52,1020.71,2030.13,2613.59,2515.00,2862.96,599.99,595.70,53.24,0000 0000 0000 0000 000000
2017-05-21 09:42:30,0.05,2.30,0.00,24.40,27.05,30.27,14.39,47.58,1020.67,2030.13,2612.95,2514.46,2862.18,599.24,594.84,53.29,0000 0000 0000 0000 000000
2017-05-21 09:47:31,0.02,2.30,0.00,24.39,27.05,30.26,14.39,47.54,1020.70,2030.15,2612.11,2514.01,2861.86,599.62,595.28,53.35,0000 0000 0000 0000 000000
2017-05-21 09:52:32,0.06,2.30,0.00,24.34,27.05,30.26,14.49,47.64,1020.87,2030.21,2611.57,2513.68,2861.09,600.08,595.99,53.40,0000 0000 0000 0000 000000
2017-05-21 09:57:34,0.03,2.31,0.00,24.27,27.05,30.25,14.51,47.66,1020.86,2030.25,2610.92,2513.03,2860.80,599.99,595.99,53.45,0000 0000 0000 0000 000000
2017-05-21 10:02:35,0.03,2.31,0.00,24.35,27.05,30.26,14.43,47.52,1020.86,2030.19,2610.09,2512.95,2860.04,600.03,595.80,53.50,0000 0000 0000 0000 000000
2017-05-21 10:07:36,0.06,2.31,0.00,24.39,27.05,30.25,14.42,47.45,1020.93,2030.29,2609.63,2512.19,2859.91,600.14,595.90,53.55,0000 0000 0000 0000 000000
2017-05-21 10:12:37,0.01,2.31,0.00,24.31,27.05,30.25,14.39,47.48,1020.94,2030.19,2609.01,2511.99,2859.11,600.11,596.03,53.60,0000 0000 0000 0000 000000
2017-05-21 10:17:39,0.06,2.31,0.00,24.37,27.04,30.25,14.45,47.52,1020.96,2030.32,2608.35,2511.67,2858.94,600.06,595.89,53.65,0000 0000 0000 0000 000000
2017-05-21 10:22:40,0.03,2.32,0.00,24.34,27.03,30.25,14.53,47.47,1020.99,2030.31,2607.90,2511.05,2858.17,600.29,596.19,53.70,0000 0000 0000 0000 000000
2017-05-21 10:27:41,0.03,2.32,0.00,24.34,27.03,30.24,14.44,47.48,1021.01,2030.36,2607.12,2510.95,2857.97,599.90,595.85,53.75,0000 0000 0000 0000 000000
2017-05-21 10:32:42,0.08,2.32,0.00,24.36,27.02,30.24,14.45,47.38,1021.01,2030.61,2606.96,2510.31,2857.37,599.98,595.99,53.80,0000 0000 0000 0000 000000
2017-05-21 10:37:44,0.03,2.32,0.00,24.35,27.02,30.24,14.41,47.46,1021.01,2030.69,2606.16,2510.02,2857.01,600.13,595.97,53.85,0000 0000 0000 0000 000000
2017-05-21 10:42:45,0.02,2.33,0.00,24.32,27.02,30.24,14.48,47.48,1020.93,2030.75,2605.75,2509.90,2856.69,600.06,595.95,53.90,0000 0000 0000 0000 000000
2017-05-21 10:47:46,0.06,2.33,0.00,24.35,27.02,30.24,14.45,47.48,1020.86,2030.69,2605.04,2509.17,2856.03,600.39,596.12,53.95,0000 0000 0000 0000 000000
2017-05-21 10:52:47,0.00,2.33,0.00,24.29,27.02,30.24,14.43,47.44,1020.85,2030.55,2604.51,2508.99,2855.76,599.83,595.74,54.00,0000 0000 0000 0000 000000
2017-05-21 10:57:48,0.05,2.33,0.00,24.33,27.02,30.25,14.48,47.42,1020.78,2030.62,2603.98,2508.60,2855.09,600.33,596.22,54.05,0000 0000 0000 0000 000000
2017-05-21 11:02:50,0.05,2.33,0.00,24.31,27.02,30.24,14.50,47.43,1020.72,2030.68,2603.29,2508.02,2854.95,600.09,595.93,54.10,0000 0000 0000 0000 000000
2017-05-21 11:07:51,0.00,2.33,0.00,24.35,27.02,30.26,14.41,47.41,1020.76,2030.58,2602.88,2507.92,2854.15,599.87,595.62,54.15,0000 0000 0000 0000 000000
2017-05-21 11:12:53,0.05,2.34,0.00,24.37,27.02,30.27,14.38,47.52,1020.91,2030.51,2602.08,2507.20,2853.87,599.85,595.64,54.20,0000 0000 0000 0000 000000
2017-05-21 11:17:54,0.02,2.34,0.00,24.34,27.01,30.26,14.45,47.57,1020.93,2030.43,2601.55,2507.00,2853.10,600.03,595.90,54.26,0000 0000 0000 0000 000000
2017-05-21 11:22:55,0.04,2.34,0.00,24.34,27.01,30.27,14.41,47.47,1020.69,2030.63,2601.02,2506.70,2852.99,599.92,595.54,54.31,0000 0000 0000 0000 000000
2017-05-21 11:27:57,0.04,2.34,0.00,24.37,27.01,30.26,14.47,47.46,1020.74,2030.61,2600.60,2506.04,2852.37,600.22,595.82,54.36,0000 0000 0000 0000 000000
2017-05-21 11:32:58,0.02,2.34,0.00,24.36,27.01,30.26,14.44,47.48,1020.79,2030.66,2600.01,2505.99,2852.01,600.09,595.87,54.41,0000 0000 0000 0000 000000
2017-05-21 11:38:00,0.05,2.35,0.00,24.37,27.01,30.26,14.49,47.58,1020.81,2030.83,2599.60,2505.67,2851.82,599.94,595.70,54.46,0000 0000 0000 0000 000000
2017-05-21 11:43:01,-0.00,2.35,0.00,24.34,27.00,30.26,14.37,47.55,1020.80,2030.44,2599.00,2505.04,2851.07,599.58,595.47,54.51,0000 0000 0000 0000 000000
2017-05-21 11:48:03,0.02,2.35,0.00,24.36,27.00,30.25,14.38,47.36,1020.71,2030.43,2598.47,2504.99,2850.94,599.79,595.57,54.56,0000 0000 0000 0000 000000
2017-05-21 11:53:04,0.07,2.35,0.00,24.35,27.00,30.25,14.51,47.42,1020.79,2030.66,2598.00,2504.53,2850.24,599.95,595.71,54.61,0000 0000 0000 0000 000000
2017-05-21 11:58:05,0.03,2.35,0.00,24.38,27.00,30.25,14.40,47.40,1020.85,2030.74,2597.59,2504.03,2850.00,600.04,595.92,54.66,0000 0000 0000 0000 000000
2017-05-21 12:03:06,0.00,2.35,0.00,24.35,27.00,30.26,14.54,47.46,1020.97,2030.48,2597.00,2503.99,2849.51,600.01,595.76,54.71,0000 0000 0000 0000 000000
2017-05-21 12:08:08,0.07,2.35,0.00,24.33,27.00,30.24,14.40,47.46,1020.92,2030.60,2596.35,2503.52,2849.03,599.98,595.90,54.76,0000 0000 0000 0000 000000
2017-05-21 12:13:09,0.02,2.36,0.00,24.31,27.00,30.23,14.49,47.60,1020.96,2030.72,2595.99,2503.02,2848.94,600.00,596.10,54.81,0000 0000 0000 0000 000000
2017-05-21 12:18:11,-0.00,2.36,0.00,24.33,27.00,30.24,14.42,47.52,1021.01,2030.49,2595.23,2502.93,2848.15,599.95,595.91,54.86,0000 0000 0000 0000 000000
2017-05-21 12:23:12,0.03,2.36,0.00,24.30,26.99,30.23,14.44,47.43,1021.01,2030.29,2594.83,2502.25,2847.92,600.20,596.17,54.91,0000 0000 0000 0000 000000
2017-05-21 12:28:13,0.04,2.36,0.00,24.27,26.98,30.22,14.43,47.39,1021.01,2030.27,2594.05,2502.00,2847.17,600.42,596.47,54.96,0000 0000 0000 0000 000000
2017-05-21 12:33:14,0.04,2.36,0.00,24.30,26.97,30.21,14.53,47.48,1020.98,2030.23,2593.46,2501.52,2846.97,599.67,595.73,55.01,0000 0000 0000 0000 000000
2017-05-21 12:38:15,0.04,2.36,0.00,24.31,26.97,30.22,14.43,47.52,1020.96,2030.35,2592.99,2501.03,2846.29,599.77,595.69,55.06,0000 0000 0000 0000 000000
2017-05-21 12:43:17,0.06,2.37,0.00,24.32,26.97,30.22,14.52,47.49,1020.78,2030.62,2592.37,2500.99,2846.00,600.17,596.01,55.12,0000 0000 0000 0000 000000
2017-05-21 12:48:18,0.05,2.37,0.00,24.31,26.97,30.21,14.41,47.45,1020.64,2030.60,2591.92,2500.38,2845.51,599.89,595.61,55.17,0000 0000 0000 0000 000000
2017-05-21 12:53:19,0.02,2.37,0.00,24.30,26.97,30.22,14.47,47.56,1020.58,2030.62,2591.11,2500.01,2845.01,600.27,596.09,55.22,0000 0000 0000 0000 000000